CW2927 Weather Reports


time (UTC)temp
C
wind
direction
speed
KPH
gust
KPH
rain 1hr
cm
rain 24hr
cm
rain mn
cm
humidity
%
barometer
mb
20260506050705 10 200 8.0 16.1 0.00 0.58 0.00 84 1006.7
20260506050205 10 199 8.0 16.1 0.00 0.58 0.00 84 1006.8
20260506044705 10 183 8.0 29.0 0.00 0.58 0.00 85 1006.7
20260506044205 10 190 4.8 14.5 0.00 0.58 0.00 85 1006.5
20260506042704 10 189 6.4 14.5 0.00 0.58 0.00 85 1006.5
20260506042205 11 193 8.0 27.4 0.00 0.58 0.00 85 1006.6
20260506040705 11 199 6.4 14.5 0.00 0.58 0.00 84 1006.5
20260506040205 11 168 6.4 19.3 0.00 0.58 0.00 84 1006.4
20260506034705 11 209 6.4 14.5 0.00 0.58 0.58 81 1006.0
20260506034206 11 192 6.4 22.5 0.00 0.58 0.58 80 1005.7
20260506032705 12 188 6.4 16.1 0.00 0.58 0.58 78 1005.6
20260506032204 12 218 4.8 14.5 0.03 0.58 0.58 78 1005.5
20260506030705 12 223 6.4 22.5 0.03 0.58 0.58 77 1005.5
20260506030205 12 222 11.3 24.1 0.03 0.58 0.58 77 1005.5
20260506024705 12 243 6.4 24.1 0.03 0.58 0.58 77 1005.5
20260506024205 12 227 8.0 29.0 0.03 0.58 0.58 77 1005.3
20260506022705 13 243 6.4 25.7 0.03 0.58 0.58 76 1005.2
20260506022205 13 252 9.7 25.7 0.00 0.56 0.56 75 1005.1
20260506020705 13 229 8.0 24.1 0.00 0.56 0.56 75 1004.8
20260506020205 13 241 4.8 24.1 0.00 0.56 0.56 75 1004.6
20260506014705 15 285 11.3 25.7 0.00 0.56 0.56 71 1004.5
20260506014204 15 287 8.0 20.9 0.00 0.56 0.56 70 1004.4
20260506012705 15 242 6.4 12.9 0.00 0.56 0.56 70 1003.9
20260506012205 15 248 4.8 11.3 0.00 0.56 0.56 71 1003.6
20260506010705 16 254 4.8 11.3 0.00 0.56 0.56 71 1003.4
20260506010205 16 245 6.4 14.5 0.00 0.56 0.56 71 1003.2
20260506004704 16 221 4.8 9.7 0.00 0.56 0.56 69 1003.0
20260506004205 16 211 4.8 11.3 0.00 0.56 0.56 69 1002.8
20260506002704 16 244 4.8 12.9 0.00 0.56 0.56 70 1002.6
20260506002205 16 232 4.8 19.3 0.00 0.56 0.56 71 1002.6
20260506000705 16 221 4.8 14.5 0.00 0.56 0.56 75 1002.4
20260506000205 16 246 4.8 11.3 0.00 0.56 0.56 78 1002.3
20260505234705 16 182 4.8 9.7 0.00 0.56 0.56 79 1002.0
20260505234205 17 186 8.0 14.5 0.00 0.56 0.56 79 1001.9
20260505232705 17 182 8.0 12.9 0.00 0.56 0.56 74 1001.6
20260505232205 17 185 8.0 14.5 0.00 0.56 0.56 73 1001.5
20260505230705 17 276 4.8 9.7 0.00 0.56 0.56 72 1001.1
20260505230204 17 205 4.8 11.3 0.00 0.56 0.56 72 1001.0
20260505224705 17 226 4.8 11.3 0.00 0.56 0.56 73 1001.0
20260505224205 17 232 6.4 16.1 0.00 0.56 0.56 73 1000.9
20260505222704 17 197 4.8 9.7 0.00 0.56 0.56 73 1000.7
20260505222204 17 218 4.8 12.9 0.00 0.56 0.56 73 1000.6
20260505220704 17 221 4.8 11.3 0.00 0.56 0.56 76 1000.3
20260505220204 17 209 4.8 20.9 0.00 0.56 0.56 77 1000.2
20260505214704 18 206 4.8 16.1 0.00 0.56 0.56 75 1000.2
20260505214205 18 202 6.4 22.5 0.00 0.56 0.56 74 999.8
20260505212704 18 202 14.5 27.4 0.00 0.56 0.56 73 999.6
20260505212205 18 201 8.0 24.1 0.00 0.56 0.56 73 999.3
20260505210704 18 212 9.7 12.9 0.00 0.56 0.56 72 998.9
20260505210205 18 214 8.0 20.9 0.00 0.56 0.56 72 998.8
20260505204704 19 223 11.3 22.5 0.00 0.56 0.56 72 998.6
20260505204204 18 215 9.7 27.4 0.00 0.56 0.56 72 998.6
20260505202704 18 202 14.5 32.2 0.00 0.56 0.56 72 998.6
20260505202205 18 197 9.7 29.0 0.00 0.56 0.56 72 998.6
20260505200704 19 178 11.3 27.4 0.00 0.56 0.56 72 998.5
20260505200204 19 182 9.7 32.2 0.00 0.56 0.56 72 998.6
20260505194705 20 205 9.7 22.5 0.00 0.56 0.56 70 998.6
20260505194205 20 221 11.3 29.0 0.00 0.56 0.56 71 998.6
20260505192704 20 184 11.3 25.7 0.00 0.56 0.56 72 998.5
20260505192205 19 183 8.0 24.1 0.00 0.56 0.56 73 998.4
20260505190705 18 189 8.0 22.5 0.00 0.56 0.56 76 998.4
20260505190205 18 171 14.5 27.4 0.00 0.56 0.56 75 998.4
20260505184704 18 172 8.0 19.3 0.00 0.56 0.56 77 998.8
20260505184204 18 188 9.7 27.4 0.00 0.56 0.56 76 998.9
20260505182704 18 191 8.0 24.1 0.08 0.56 0.56 79 998.6
20260505182204 18 192 9.7 22.5 0.13 0.56 0.56 81 998.5
20260505180705 17 194 8.0 16.1 0.28 0.56 0.56 86 998.6
20260505180204 17 196 4.8 29.0 0.36 0.56 0.56 87 998.5
20260505174705 16 192 4.8 8.0 0.38 0.56 0.56 91 998.6
20260505174204 15 192 3.2 12.9 0.38 0.56 0.56 90 998.7
20260505172704 15 244 6.4 20.9 0.30 0.48 0.48 88 999.0
20260505172204 16 230 4.8 25.7 0.25 0.43 0.43 87 999.2
20260505170704 17 241 9.7 25.7 0.10 0.28 0.28 77 999.1
20260505170204 18 202 8.0 22.5 0.03 0.20 0.20 72 998.6
20260505164704 19 197 8.0 19.3 0.00 0.18 0.18 65 998.2
20260505164204 20 196 6.4 22.5 0.00 0.18 0.18 66 998.3
20260505162705 20 188 6.4 20.9 0.00 0.18 0.18 64 998.5
20260505162206 20 200 9.7 27.4 0.00 0.18 0.18 64 998.5
20260505160705 20 180 9.7 24.1 0.00 0.18 0.18 64 998.6
20260505160205 20 163 14.5 29.0 0.00 0.18 0.18 64 998.7
20260505152704 19 179 9.7 24.1 0.00 0.18 0.18 68 999.5
20260505152204 18 175 8.0 32.2 0.00 0.18 0.18 69 999.5
20260505150704 18 169 11.3 27.4 0.00 0.18 0.18 71 999.5
20260505150204 18 166 14.5 32.2 0.00 0.18 0.18 72 999.6
20260505140204 13 159 8.0 25.7 0.18 0.20 0.18 88 1000.5
20260505130204 16 195 9.7 29.0 0.00 0.28 0.00 67 1000.9
20260505124704 17 226 9.7 24.1 0.00 0.41 0.00 62 1000.5
20260505124204 17 188 11.3 25.7 0.00 0.43 0.00 60 1000.4
20260505122704 17 186 8.0 27.4 0.00 0.56 0.00 59 1000.2
20260505122204 18 176 11.3 32.2 0.00 0.61 0.00 59 1000.3
20260505120704 17 171 14.5 33.8 0.00 0.69 0.00 58 1000.2
20260505120204 17 173 8.0 22.5 0.00 0.71 0.00 60 1000.2
20260505114704 16 161 8.0 19.3 0.00 0.76 0.00 62 1000.3
20260505114205 16 163 11.3 24.1 0.00 0.76 0.00 63 1000.2
20260505112704 14 138 3.2 11.3 0.00 0.79 0.00 65 1000.4
20260505112204 14 142 4.8 12.9 0.00 0.79 0.00 66 1000.5
20260505110704 14 155 8.0 14.5 0.00 0.79 0.00 66 1000.4
20260505110204 13 154 8.0 12.9 0.00 0.79 0.00 66 1000.4
20260505102204 12 148 4.8 11.3 0.00 0.79 0.00 69 1000.4
20260505100703 12 144 3.2 9.7 0.00 0.79 0.00 70 1000.4
20260505100204 12 146 3.2 11.3 0.00 0.79 0.00 70 1000.5
20260505094704 11 148 4.8 9.7 0.00 0.79 0.00 71 1000.4
20260505094204 11 140 4.8 9.7 0.00 0.79 0.00 71 1000.3
20260505092204 11 142 3.2 12.9 0.00 0.79 0.00 73 1000.4
20260505090704 10 138 4.8 9.7 0.00 0.79 0.00 76 1000.5
20260505090204 10 130 3.2 9.7 0.00 0.79 0.00 76 1000.5
20260505084704 10 140 3.2 4.8 0.00 0.79 0.00 75 1000.6
20260505084204 10 140 3.2 4.8 0.00 0.79 0.00 74 1000.7
20260505082704 11 141 4.8 8.0 0.00 0.79 0.00 74 1000.8
20260505082204 11 141 3.2 9.7 0.00 0.79 0.00 74 1000.7
20260505080704 10 135 3.2 8.0 0.00 0.79 0.00 75 1000.7
20260505080204 10 132 3.2 12.9 0.00 0.79 0.00 76 1000.7
20260505074705 10 131 4.8 8.0 0.00 0.79 0.00 76 1000.7
20260505074205 10 132 3.2 8.0 0.00 0.79 0.00 75 1000.7
20260505072705 10 145 3.2 4.8 0.00 0.79 0.00 75 1000.8
20260505072205 10 147 3.2 8.0 0.00 0.79 0.00 75 1000.9
20260505070705 11 154 4.8 8.0 0.00 0.79 0.00 74 1000.9
20260505070205 11 155 3.2 8.0 0.00 0.79 0.00 74 1000.9
20260505064706 11 161 3.2 11.3 0.00 0.79 0.00 73 1001.0
20260505064205 11 157 6.4 11.3 0.00 0.79 0.00 73 1001.0
20260505062705 11 145 4.8 9.7 0.00 0.79 0.00 74 1001.0
20260505062205 11 152 4.8 8.0 0.00 0.79 0.00 74 1001.1
20260505060705 11 145 4.8 11.3 0.00 0.79 0.00 75 1001.1
20260505060205 11 150 4.8 9.7 0.00 0.79 0.00 75 1001.2
20260505054705 10 144 4.8 8.0 0.00 0.79 0.00 78 1001.2
20260505054205 10 136 3.2 9.7 0.00 0.79 0.00 79 1001.2